Regional Weather Roundup
Issued by NWS

Home | Current Version | Previous Version | Graphics & Text | Print | Product List | Glossary Off
Versions: 1 2 3 4 5 6 7 8 9 10 11 12 13 14 15 16 17 18 19 20 21 22 23 24 25 26 27 28 29 30 31 32 33 34 35 36 37 38 39 40 41 42 43 44 45 46 47 48 49 50

000
ASUS43 KMPX 212210
RWRMN
WEATHER ROUNDUP FOR MINNESOTA
NATIONAL WEATHER SERVICE TWIN CITIES/CHANHASSEN MN
400 PM CST FRI NOV 21 2014


NOTE: "FAIR" INDICATES FEW OR NO CLOUDS BELOW 12,000 FEET WITH NO
SIGNIFICANT WEATHER AND/OR OBSTRUCTIONS TO VISIBILITY. N/A MEANS
CURRENT SKY AND/OR WEATHER CONDITIONS ARE NOT AVAILABLE.

MNZ060>063-068>070-212300-
   Twin Cities Metro

CITY           SKY/WX    TMP DP  RH WIND       PRES   REMARKS
TWIN CITIES    CLOUDY    27  17  66 SE13      30.01F WCI  16
ST PAUL        PTCLDY    26  17  68 SE15      30.03F WCI  14
LAKEVILLE      PTCLDY    27  19  74 S7        30.01F WCI  19
EDEN PRAIRIE   MOCLDY    30  20  66 S16       29.99F WCI  19
SOUTH ST PAUL  PTCLDY    27  18  67 S14       30.02F WCI  16
LAKE ELMO      FAIR      27  18  69 S15G21    30.03F WCI  15
$$
MNZ001>005-007-008-013>017-022>024-027-028-212300-
   Northwest Minnesota

CITY           SKY/WX    TMP DP  RH WIND       PRES   REMARKS
BEMIDJI        PTCLDY    28  20  70 S12G17    29.74R WCI  18
HALLOCK        PTCLDY    34  27  75 S24G31    29.57F WCI  21
ROSEAU         CLEAR     30  23  74 S22G31    29.58F WCI  17
WARROAD        PTCLDY    28  23  80 S12G24    29.61F WCI  18
THIEF RVR FALL PTCLDY    28  23  80 S21       29.66F WCI  15
CROOKSTON      PTCLDY    30  25  80 S24G31    29.69F WCI  16
FOSSTON        PTCLDY    27  19  74 S20       29.71F WCI  13
DETROIT LAKES  PTCLDY    30  23  74 S16       29.77F WCI  19
MOORHEAD       PTCLDY    32  27  80 S17       29.77S WCI  21
PARK RAPIDS    PTCLDY    27  21  78 S16       29.79F WCI  15
MAHNOMEN       FAIR      28  22  77 S23G29    29.73F WCI  14
$$
MNZ006-009>011-018-025>026-212300-
   North Central Minnesota

CITY           SKY/WX    TMP DP  RH WIND       PRES   REMARKS
BAUDETTE       PTCLDY    31  20  63 S16G29    29.63F WCI  20
FLAG ISLAND    PTCLDY    28  21  74 S21G26    29.57F WCI  15
INTL FALLS     MOCLDY    30  17  58 SW14G21   29.68S WCI  19
WASKISH        PTCLDY    30  21  69 CALM      29.70S
BIG FORK       PTCLDY    28  19  69 S16G28    29.74F WCI  17
LONGVILLE      PTCLDY    28  19  69 S14G20    29.81R WCI  17
GRAND RAPIDS   PTCLDY    27  18  69 S12G22    29.80S WCI  16
CRANE LAKE     CLEAR     28  18  64 S14G24    29.73F WCI  17
ORR            PTCLDY    28  18  64 S9G18     29.70F WCI  20
COOK           PTCLDY    28  19  69 S14G24    29.76S WCI  17
WALKER         FAIR      28  19  71 S12G22    29.77F WCI  17
$$
MNZ012-019>021-037-212300-
   Northeast Minnesota

CITY           SKY/WX    TMP DP  RH WIND       PRES   REMARKS
DULUTH         PTCLDY    27  16  63 SW18G26   29.86F WCI  14
ELY            CLEAR     28  18  64 SW14G28   29.75F WCI  17
HIBBING        FAIR      28  16  60 SW14G32   29.80F WCI  17
EVELETH        PTCLDY    30  19  64 S16G24    29.80F WCI  19
DULUTH HARBOR  PTCLDY    30  19  64 SW21      29.92S WCI  17
TWO HARBORS    PTCLDY    30  19  64 SW17G28   29.85F WCI  18
SILVER BAY     CLEAR     30  19  64 S13G23    29.83F WCI  20
GRAND MARAIS     N/A     34  25  69 SW31G38   29.86F WCI  20
G MARAIS ARPRT MOCLDY    23  16  74 S84       29.80F WCI  -2
$$
MNZ029>031-032-039>041-046>048-054>057-064-212300-
   West Central Minnesota

CITY           SKY/WX    TMP DP  RH WIND       PRES   REMARKS
FERGUS FALLS   PTCLDY    28  21  74 S15       29.83F WCI  17
WHEATON        MOCLDY    30  25  80 SE7       29.83S WCI  23
MORRIS         PTCLDY    32  27  80 S13       29.83F WCI  22
ALEXANDRIA     MOCLDY    30  23  75 S14       29.85F WCI  19
ELBOW LAKE       N/A     29  25  84 S17       29.82S WCI  17
WADENA         MOCLDY    28  21  74 S12G20    29.82S WCI  18
GLENWOOD       MOCLDY    30  25  80 S20       29.86F WCI  18
APPLETON       PTCLDY    34  27  75 S12       29.86F WCI  25
BENSON         PTCLDY    32  27  80 SW13      29.87S WCI  22
ORTONVILLE     MOCLDY    34  27  75 S9        29.84S WCI  26
MADISON        MOCLDY    37  30  75 S12       29.86R
WILLMAR        FAIR      34  25  69 S3        29.91S
$$
MNZ033>034-036-042>043-049>051-058-059-212300-
   Central Minnesota

CITY           SKY/WX    TMP DP  RH WIND       PRES   REMARKS
ST CLOUD       CLOUDY    28  20  71 S16G25    29.92F WCI  16
SAUK CENTRE    FAIR      29  24  79 S14       29.88F WCI  19
PAYNESVILLE    CLOUDY    27  22  82 SE15G21   29.91S WCI  15
AITKIN         MOCLDY    30  19  64 S13G21    29.85F WCI  20
PINE RIVER     MOCLDY    27  19  74 S8G20     29.87S WCI  18
BRAINERD       MOCLDY    26  19  74 S15       29.87F WCI  14
STAPLES        CLOUDY    27  21  80 S10       29.85R WCI  17
LONG PRAIRIE   FAIR      28  23  80 S17       29.87F WCI  16
LITTLE FALLS   CLOUDY    28  21  74 S12       29.89F WCI  18
LITCHFIELD     CLOUDY    30  25  80 S7        29.92F WCI  23
BUFFALO        CLOUDY    29  20  70 S12G18    29.96F WCI  19
MAPLE LAKE     CLOUDY    30  23  75 S7G17     29.95F WCI  23
$$
MNZ037-044-045-052-053-212300-
   East Central Minnesota

CITY           SKY/WX    TMP DP  RH WIND       PRES   REMARKS
PRINCETON      MOCLDY    30  19  64 S13       29.95F WCI  20
MORA             N/A    N/A N/A N/A MISG        N/A
CAMBRIDGE      MOCLDY    30  18  59 S10G16    29.94F WCI  21
RUSH CITY      MOCLDY    28  18  68 S13G22    29.96F WCI  17
MOOSE LAKE     MOCLDY    27  18  69 S13G21    29.90S WCI  16
HINCKLEY       FAIR      28  19  69 S14       29.95F WCI  17
CLOQUET        PTCLDY    27  16  63 SW15G28   29.88S WCI  15
MCGREGOR       MOCLDY    30  21  69 S13G21    29.87F WCI  20
$$
MNZ071>073-080-081-089-090-097-098-212300-
   Southwest Minnesota

CITY           SKY/WX    TMP DP  RH WIND       PRES   REMARKS
MONTEVIDEO     PTCLDY    34  27  75 SW14      29.89S WCI  24
GRANITE FALLS  PTCLDY    32  26  78 S13G20    29.91S WCI  23
CANBY          CLOUDY    35  28  74 SW25G35   29.83R WCI  23
MARSHALL       MOCLDY    34  25  69 SW31G37   29.85F WCI  20
REDWOOD FALLS  FAIR      34  26  72 S18       29.92F WCI  23
OLIVIA         PTCLDY    34  28  80 S16       29.90F WCI  23
PIPESTONE      FAIR      32  27  80 S14G20    29.89R WCI  22
WINDOM         PTCLDY    32  25  74 S23G29    29.92F WCI  19
WORTHINGTON    PTCLDY    30  25  80 S25       29.92F WCI  16
JACKSON        MOCLDY    32  25  74 S16G25    29.96F WCI  21
TRACY          MOCLDY    35  27  75 S25G33    29.87F WCI  22
SLAYTON        MOCLDY    32  26  79 S22G30    29.91F WCI  19
$$
MNZ065>067-074>077-082>085-091>093-212300-
   South Central Minnesota

CITY           SKY/WX    TMP DP  RH WIND       PRES   REMARKS
MANKATO        MOCLDY    28  19  69 S14G24    30.00F WCI  17
NEW ULM        MOCLDY    28  25  86 S20G28    29.95S WCI  15
ST JAMES       PTCLDY    32  25  74 S22G29    29.98F WCI  19
FAIRMONT       PTCLDY    28  21  74 SE22      30.00S WCI  15
GLENCOE        CLOUDY    31  25  77 S9G21     29.96F WCI  23
FARIBAULT      PTCLDY    28  19  69 S16G22    30.02F WCI  17
OWATONNA       PTCLDY    27  19  74 S18G26    30.02F WCI  13
WASECA         PTCLDY    30  19  64 S22G29    30.03F WCI  17
ALBERT LEA     PTCLDY    28  21  74 S13G20    30.05F WCI  18
$$
MNZ078>079-086>088-094>096-212300-
   Southeast Minnesota

CITY           SKY/WX    TMP DP  RH WIND       PRES   REMARKS
ROCHESTER      MOCLDY    25  16  68 S16       30.07F WCI  12
RED WING       CLEAR     28  16  59 S12       30.07F WCI  18
STANTON        PTCLDY    28  19  70 S12G21    30.02F WCI  18
DODGE CENTER   PTCLDY    27  19  74 S21       30.04F WCI  13
WINONA         PTCLDY    32  14  47 S7        30.13F WCI  26
AUSTIN         FAIR      27  18  69 S14G21    30.07F WCI  15
PRESTON        MOCLDY    25  16  68 S13       30.10F WCI  13
$$
ABBREVIATIONS USED IN REMARKS
   TC - TEMPERATURES IN CELSIUS
  WCI - WIND CHILL INDEX
   HX - HEAT INDEX
  VSB - VISIBILITY
$$



USA.gov is the U.S. government's official web portal to all federal, state and local government web resources and services.